Tracking 35274 objects as of 12-Sep-2026
HD Live streaming from Space Station
objects crossing your sky now

HEAD-3E

Track HEAD-3E now!
10-day predictions


NORAD ID: 57630
Int'l Code: 2023-121E
Launch date: August 14, 2023
Source: People's Republic of China (PRC)
Launch site: Xichang Space Center, China (XSC)
Your satellite tracking list
Your tracking list is empty




NASA's NSSDC Master Catalog

Two Line Element Set (TLE):
1 57630U 23121E   26254.96859681  .00000364  00000-0  99933-4 0  9991
2 57630  45.0020 218.7218 0008742 346.1635  13.8982 14.63978336164600
Source of the keplerian elements: AFSPC